User: anonymous   Login
Location: Bishopstone
(51.0167°N, 1.9000°W)
Time: 11:58:35
(UTC+00:00)
Language:

AO-91 - Orbit

View from above orbital plane
View from above orbital plane
View from above satellite
View from above satellite

Ground track
Ground track

The orbit data is extracted from the following two-line orbital elements,

1 43017U 17073E   20028.72257789 +.00000256 +00000-0 +25173-4 0  9997
2 43017 097.7272 306.3678 0258211 148.5491 213.1456 14.78779092118360
Epoch (UTC): 28 January 2020 17:20:30
Eccentricity: 0.0258211
inclination: 97.7272°
perigee height: 452 km
apogee height: 814 km
right ascension of ascending node: 306.3678°
argument of perigee: 148.5491°
revolutions per day: 14.78779092
mean anomaly at epoch: 213.1456°
orbit number at epoch: 11836

The dashed part of the orbit path shows where the satellite is in the earth's shadow,  

DLR